User: anonymous
Location: Hepcat Sky Observatory
(29.9800°N, 95.6500°W)
Time: 01:44:13
(UTC-05:00)
Language:

Cosmos 2151 Rocket - Orbit

View from above orbital plane
View from above orbital plane
View from above satellite
View from above satellite

Ground track
Ground track

The orbit data is extracted from the following two-line orbital elements,

1 21423U 91042B   14205.12108020  .00000131  00000-0  14459-4 0  7523
2 21423 082.4914 230.8659 0019376 117.9175 298.9632 14.79214530245996
Epoch (UTC): 24 July 2014 02:54:21
Eccentricity: 0.0019376
inclination: 82.4914°
perigee height: 618 km
apogee height: 645 km
right ascension of ascending node: 230.8659°
argument of perigee: 117.9175°
revolutions per day: 14.79214530
mean anomaly at epoch: 298.9632°
orbit number at epoch: 24599

The dashed part of the orbit path shows where the satellite is in the earth's shadow,  

DLR